Starlink 30160

operational
NORAD ID: 57441 Int'l Des: 2023-105 Owner: SPXS Country: US Constellation: starlink
LEOCIRCULAR

关于 Starlink 30160

正在加载描述...

实时位置

正在加载3D地球...

即将过境

高度历史

Altitude vs Time

uPlot chart will show altitude changes over time

两行轨道根数

1 57441U 23105M 26035.14541986 .00001132 00000-0 98866-4 0 9994
2 57441 43.0030 84.0014 0000960 293.8657 66.2084 15.02530501140356
Epoch: Feb 4, 2026 • Age: 11 hours

当前状态

高度 561.9 km
速度 7.59 km/s
星下点 39.25°N, 142.85°E
发射日期 Jul 24, 2023
运行时间 2.5 years
类型 internet

技术详情

分类 Payload
质量 730.00 kg
干质量 700.00 kg
总质量 730.00 kg
长度 0.30 m
直径 4.10 m
跨度 29.00 m
形状 Box + pan
制造商 SPXS
平台类型 Starlink V2M
阶段状态 In Orbit
所有者/国家 SPXS/US

大型星座

Loading constellations...